Waarnemingen

Advertentie
Mijn weer
Westdorpe aws, Nederland (6319): temperatuur & dauwpunt: 08.08.2018 08:00:00 - 14.08.2018 08:00:00 (CEST)Westdorpe aws, Nederland (6319): temperatuur 5cm: 08.08.2018 08:00:00 - 14.08.2018 08:00:00 (CEST)Westdorpe aws, Nederland (6319): windsnelheid & windstoten: 08.08.2018 08:00:00 - 14.08.2018 08:00:00 (CEST)Westdorpe aws, Nederland (6319): windrichting: 08.08.2018 08:00:00 - 14.08.2018 08:00:00 (CEST)Westdorpe aws, Nederland (6319): luchtdruk: 08.08.2018 08:00:00 - 14.08.2018 08:00:00 (CEST)Westdorpe aws, Nederland (6319): zicht: 08.08.2018 08:00:00 - 14.08.2018 08:00:00 (CEST)Westdorpe aws, Nederland (6319): neerslag: 08.08.2018 08:00:00 - 14.08.2018 08:00:00 (CEST)
Datum & Tijd tt [°C] td [°C] tt 5cm [°C] ff [km/u] ff [kn] fx [km/u] fx [kn] dd ppp [hPa] vv [km] rr [mm]
14.08.2018 08:00:00 17,7 16,8 17,2 11 6 18 10 W 1013,3 10 0,0
14.08.2018 07:00:00 16,7 16,3 16,2 11 6 14 8 W 1012,5 7 0,0
14.08.2018 06:00:00 16,3 16,0 15,7 11 6 14 8 WZW 1011,9 6 0,0
14.08.2018 05:00:00 16,6 16,2 16,1 11 6 18 10 WZW 1011,4 6 0,0
14.08.2018 04:00:00 17,0 16,3 16,4 14 8 22 12 WZW 1010,9 8 0,0
14.08.2018 03:00:00 16,6 15,8 16,0 14 8 22 12 WZW 1010,6 11 0,0
14.08.2018 02:00:00 16,6 15,7 16,1 14 8 25 14 WZW 1010,5 12 0,0
14.08.2018 01:00:00 16,8 15,7 16,2 14 8 25 14 WZW 1010,2 14 0,0
14.08.2018 00:00:00 17,5 15,9 16,9 18 10 29 16 WZW 1009,6 18 0,0
13.08.2018 23:00:00 18,2 15,9 17,7 22 12 29 16 WZW 1009,1 24 0,0
13.08.2018 22:00:00 18,8 15,9 18,2 14 8 18 10 WZW 1008,9 39 0,0
13.08.2018 21:00:00 19,3 15,4 18,9 14 8 29 16 W 1008,4 43 0,0
13.08.2018 20:00:00 20,6 14,9 20,8 25 14 40 21 WNW 1007,9 40 0,0
13.08.2018 19:00:00 21,3 14,8 21,9 18 10 29 16 W 1007,4 39 0,0
13.08.2018 18:00:00 22,1 16,1 22,8 14 8 22 12 W 1006,9 35 0,0
13.08.2018 17:00:00 20,7 16,5 20,7 14 8 25 14 W 1007,0 44 0,0
13.08.2018 16:00:00 19,6 16,1 20,6 22 12 36 19 WZW 1006,9 34 0,0
13.08.2018 15:00:00 22,0 15,7 23,1 22 12 40 21 WZW 1006,7 46 0,0
13.08.2018 14:00:00 22,3 15,5 23,5 29 16 40 21 ZW 1006,4 41 0,0
13.08.2018 13:00:00 21,1 15,1 22,2 25 14 36 19 WZW 1006,4 40 0,0
13.08.2018 12:00:00 20,3 16,3 21,5 18 10 25 14 ZW 1006,1 39 0,0
13.08.2018 11:00:00 19,5 17,0 19,8 14 8 29 16 ZW 1006,3 41 0,0
13.08.2018 10:00:00 18,7 16,3 18,7 18 10 29 16 ZW 1006,0 40 0,0
13.08.2018 09:00:00 17,8 16,8 17,8 7 4 25 14 Z 1005,7 6 0,0
13.08.2018 08:00:00 17,6 16,6 17,4 18 10 25 14 ZW 1006,2 16 0,6
13.08.2018 07:00:00 17,3 16,4 17,0 11 6 22 12 Z 1005,9 9 0,7
13.08.2018 06:00:00 17,6 15,7 16,9 7 4 14 8 Z 1005,9 22 0,0
13.08.2018 05:00:00 17,8 16,0 17,1 7 4 11 6 ZZO 1006,1 19 0,0
13.08.2018 04:00:00 17,4 16,1 16,5 7 4 11 6 ZZO 1006,4 22 0,0
13.08.2018 03:00:00 17,8 16,6 16,9 0 0 7 4 N 1007,0 23 0,0
13.08.2018 02:00:00 18,5 16,5 18,0 7 4 18 10 W 1007,9 34 0,2
13.08.2018 01:00:00 19,8 16,5 19,2 11 6 14 8 WNW 1008,2 30 0,0
13.08.2018 00:00:00 21,2 15,0 20,0 4 2 18 10 WZW 1008,0 50 0,0
12.08.2018 23:00:00 22,4 14,2 21,2 7 4 18 10 ZZO 1008,4 50 0,0
12.08.2018 22:00:00 22,9 13,7 21,6 7 4 11 6 ZO 1008,6 50 0,0
12.08.2018 21:00:00 23,5 13,5 22,3 7 4 11 6 OZO 1009,0 50 0,0
12.08.2018 20:00:00 25,2 12,0 24,6 7 4 18 10 Z 1009,2 49 0,0
12.08.2018 19:00:00 26,1 11,6 26,4 11 6 22 12 Z 1009,8 49 0,0
12.08.2018 18:00:00 26,6 11,7 27,5 14 8 25 14 Z 1010,4 50 0,0
12.08.2018 17:00:00 26,7 11,1 27,8 14 8 32 18 ZZW 1011,1 48 0,0
12.08.2018 16:00:00 27,4 10,6 29,5 14 8 32 18 Z 1011,8 45 0,0
12.08.2018 15:00:00 26,6 10,9 30,0 22 12 36 19 Z 1012,6 39 0,0
12.08.2018 14:00:00 25,8 10,6 28,4 22 12 32 18 Z 1013,4 43 0,0
12.08.2018 13:00:00 25,6 10,6 29,1 25 14 36 19 Z 1014,1 48 0,0
12.08.2018 12:00:00 24,2 10,1 26,4 22 12 40 21 ZZW 1014,7 49 0,0
12.08.2018 11:00:00 22,8 10,1 25,0 22 12 32 18 Z 1015,2 48 0,0
12.08.2018 10:00:00 20,2 10,3 21,0 14 8 25 14 Z 1015,5 41 0,0
12.08.2018 09:00:00 18,3 10,0 18,2 14 8 22 12 Z 1016,1 49 0,0
12.08.2018 08:00:00 17,3 10,1 17,2 11 6 14 8 Z 1016,2 50 0,0
12.08.2018 07:00:00 16,0 10,4 15,1 7 4 11 6 Z 1016,6 50 0,0
12.08.2018 06:00:00 16,1 10,3 15,4 7 4 14 8 ZZO 1016,7 50 0,0
12.08.2018 05:00:00 15,9 11,1 15,4 4 2 11 6 ZO 1017,6 49 0,0
12.08.2018 04:00:00 15,7 11,3 15,2 7 4 11 6 ZZO 1018,3 49 0,0
12.08.2018 03:00:00 15,7 11,2 15,1 7 4 11 6 ZZO 1019,0 47 0,0
12.08.2018 02:00:00 14,9 11,4 13,9 7 4 14 8 ZZO 1019,6 43 0,0
12.08.2018 01:00:00 14,7 11,2 12,8 11 6 11 6 ZZO 1020,2 43 0,0
12.08.2018 00:00:00 13,9 12,7 12,8 4 2 7 4 Z 1020,7 26 0,0
11.08.2018 23:00:00 14,3 12,0 12,7 0 0 7 4 N 1021,1 48 0,0
11.08.2018 22:00:00 15,2 12,9 13,8 7 4 11 6 NW 1021,6 30 0,0
11.08.2018 21:00:00 16,2 12,7 15,0 4 2 11 6 NW 1021,5 48 0,0
11.08.2018 20:00:00 20,0 11,4 20,2 7 4 18 10 NO 1021,7 49 0,0
11.08.2018 19:00:00 21,5 9,1 23,4 11 6 22 12 WZW 1022,1 42 0,0
11.08.2018 18:00:00 21,5 8,7 24,1 11 6 25 14 W 1022,3 44 0,0
11.08.2018 17:00:00 20,7 9,6 22,9 14 8 25 14 W 1022,8 45 0,0
11.08.2018 16:00:00 20,4 8,4 22,6 14 8 25 14 WZW 1023,3 48 0,0
11.08.2018 15:00:00 20,0 9,6 22,6 14 8 25 14 W 1023,5 47 0,0
11.08.2018 14:00:00 19,2 9,9 20,3 14 8 29 16 W 1023,7 50 0,0
11.08.2018 13:00:00 19,1 10,0 21,1 14 8 36 19 W 1023,8 44 0,0
11.08.2018 12:00:00 18,0 11,0 19,1 18 10 32 18 WNW 1023,7 48 0,0
11.08.2018 11:00:00 18,5 11,5 18,5 18 10 29 16 W 1023,7 44 0,0
11.08.2018 10:00:00 17,3 12,2 18,6 14 8 22 12 WZW 1023,6 36 0,0
11.08.2018 09:00:00 15,4 11,8 15,7 11 6 18 10 WZW 1023,2 39 0,0
11.08.2018 08:00:00 13,8 11,4 13,4 11 6 18 10 WZW 1022,6 46 0,0
11.08.2018 07:00:00 12,7 11,3 11,6 11 6 14 8 ZW 1022,1 42 0,0
11.08.2018 06:00:00 11,7 10,9 10,7 11 6 18 10 ZW 1021,7 32 0,0
11.08.2018 05:00:00 12,3 11,6 11,6 14 8 22 12 WZW 1021,3 36 0,0
11.08.2018 04:00:00 12,9 12,1 12,3 14 8 25 14 WZW 1021,1 30 0,0
11.08.2018 03:00:00 13,3 12,2 12,7 14 8 25 14 WZW 1020,8 41 0,0
11.08.2018 02:00:00 13,7 12,2 12,9 14 8 25 14 ZW 1020,6 50 0,0
11.08.2018 01:00:00 13,7 12,6 13,0 11 6 29 16 ZW 1020,7 50 0,0
11.08.2018 00:00:00 13,9 12,7 13,5 14 8 29 16 WZW 1020,3 22 3,7
10.08.2018 23:00:00 14,2 12,5 13,8 18 10 47 25 ZW 1019,8 21 2,0
10.08.2018 22:00:00 15,9 13,4 15,4 22 12 36 19 WZW 1019,9 15 0,2
10.08.2018 21:00:00 16,2 12,7 15,6 25 14 47 25 ZW 1019,8 16 0,2
10.08.2018 20:00:00 18,5 11,3 18,1 18 10 32 18 WZW 1019,5 50 0,0
10.08.2018 19:00:00 19,4 10,2 19,1 22 12 50 27 WZW 1019,5 49 0,0
10.08.2018 18:00:00 21,0 9,2 21,3 29 16 43 23 ZW 1019,2 48 0,0
10.08.2018 17:00:00 21,7 9,4 21,5 32 18 47 25 ZW 1019,6 45 0,0
10.08.2018 16:00:00 20,4 11,4 21,9 25 14 40 21 Z 1020,4 36 0,0
10.08.2018 15:00:00 17,5 12,4 17,0 25 14 40 21 WZW 1021,2 26 0,5
10.08.2018 14:00:00 20,0 11,7 23,7 25 14 40 21 ZZW 1021,1 31 0,0
10.08.2018 13:00:00 19,7 11,7 22,5 29 16 40 21 ZW 1021,1 43 0,0
10.08.2018 12:00:00 17,9 11,5 19,0 25 14 43 23 ZW 1021,2 39 0,0
10.08.2018 11:00:00 17,3 11,9 18,2 25 14 40 21 ZW 1021,0 43 0,0
10.08.2018 10:00:00 16,6 12,0 17,4 25 14 40 21 ZW 1020,9 42 0,0
10.08.2018 09:00:00 15,5 12,3 15,8 22 12 32 18 ZW 1020,5 29 0,0
10.08.2018 08:00:00 14,3 12,0 14,0 18 10 32 18 ZZW 1020,2 11 0,0
10.08.2018 07:00:00 12,9 11,8 12,1 11 6 22 12 ZZW 1019,7 3,0 0,0
10.08.2018 06:00:00 13,5 12,1 12,6 14 8 29 16 ZZW 1019,0 9 0,0
10.08.2018 05:00:00 13,1 12,1 12,3 11 6 22 12 ZZW 1018,9 16 0,0
10.08.2018 04:00:00 13,1 11,7 12,3 11 6 14 8 Z 1018,8 35 0,0
10.08.2018 03:00:00 13,1 11,6 12,2 11 6 25 14 ZW 1018,6 40 0,0
10.08.2018 02:00:00 13,8 12,5 13,1 18 10 25 14 ZW 1018,4 34 0,0
10.08.2018 01:00:00 13,7 12,2 13,0 18 10 25 14 ZW 1017,8 47 0,0
10.08.2018 00:00:00 13,8 12,4 13,1 14 8 22 12 WZW 1016,6 47 0,0
09.08.2018 23:00:00 14,7 13,2 14,2 22 12 43 23 W 1015,5 34 0,2
09.08.2018 22:00:00 15,2 14,0 14,8 29 16 61 33 WNW 1014,4 11 0,7
09.08.2018 21:00:00 15,9 15,1 15,6 25 14 43 23 WZW 1011,8 7 1,8
09.08.2018 20:00:00 16,0 15,5 15,9 29 16 40 21 W 1010,4 4,0 4,5
09.08.2018 19:00:00 17,7 16,1 17,7 22 12 47 25 W 1008,9 37 0,0
09.08.2018 18:00:00 18,1 16,7 18,1 32 18 50 27 WZW 1006,8 17 0,0
09.08.2018 17:00:00 18,8 18,0 18,7 4 2 22 12 ZO 1006,1 6 0,0
09.08.2018 16:00:00 18,1 17,5 18,0 14 8 22 12 NO 1006,5 6 0,7
09.08.2018 15:00:00 17,8 16,9 17,8 14 8 18 10 NNO 1007,6 6 1,3
09.08.2018 14:00:00 17,7 16,9 17,4 11 6 18 10 NNO 1008,3 7 3,5
09.08.2018 13:00:00 18,2 15,6 17,7 11 6 22 12 O 1009,3 3,9 2,8
09.08.2018 12:00:00 20,1 14,6 19,8 18 10 29 16 O 1009,2 20 0,0
09.08.2018 11:00:00 20,9 12,8 21,0 18 10 22 12 ONO 1010,0 41 0,0
09.08.2018 10:00:00 20,1 13,2 20,5 11 6 18 10 ONO 1011,5 40 0,0
09.08.2018 09:00:00 18,7 12,9 18,4 11 6 14 8 ONO 1011,8 45 0,0
09.08.2018 08:00:00 16,8 12,9 16,2 7 4 11 6 N 1012,7 15 0,0
09.08.2018 07:00:00 14,2 12,5 12,9 4 2 7 4 NO 1013,3 38 0,0
09.08.2018 06:00:00 14,9 13,2 13,3 4 2 4 2 NNO 1013,3 47 0,0
09.08.2018 05:00:00 15,5 13,3 15,0 0 0 7 4 N 1013,8 45 0,0
09.08.2018 04:00:00 15,3 12,9 14,7 4 2 4 2 ONO 1013,9 48 0,0
09.08.2018 03:00:00 14,3 12,6 13,5 0 0 7 4 N 1014,6 49 0,0
09.08.2018 02:00:00 12,8 10,8 11,3 4 2 11 6 O 1015,1 47 0,0
09.08.2018 01:00:00 13,9 10,9 12,0 7 4 11 6 ZZO 1015,4 50 0,0
09.08.2018 00:00:00 14,2 11,2 11,8 7 4 11 6 ZZO 1015,3 50 0,0
08.08.2018 23:00:00 15,7 11,1 12,3 4 2 7 4 ZO 1015,3 50 0,0
08.08.2018 22:00:00 16,3 11,2 13,6 4 2 7 4 Z 1015,3 48 0,0
08.08.2018 21:00:00 19,9 11,5 19,1 7 4 18 10 W 1014,7 50 0,0
08.08.2018 20:00:00 21,9 10,2 22,2 14 8 25 14 W 1014,7 47 0,0
08.08.2018 19:00:00 22,0 9,9 22,5 14 8 32 18 ZW 1014,5 49 0,0
08.08.2018 18:00:00 23,1 9,8 23,5 18 10 36 19 WZW 1014,6 43 0,0
08.08.2018 17:00:00 23,2 10,4 24,2 22 12 43 23 W 1014,5 38 0,0
08.08.2018 16:00:00 22,2 10,3 23,5 22 12 40 21 WZW 1014,4 44 0,0
08.08.2018 15:00:00 22,9 10,4 24,3 25 14 40 21 WZW 1013,9 40 0,0
08.08.2018 14:00:00 23,1 10,5 25,7 29 16 43 23 ZW 1013,3 35 0,0
08.08.2018 13:00:00 21,5 12,4 23,2 29 16 40 21 WZW 1012,8 17 0,0
08.08.2018 12:00:00 21,8 13,1 22,5 25 14 43 23 WZW 1012,2 33 0,0
08.08.2018 11:00:00 20,5 13,1 22,6 32 18 47 25 ZW 1011,0 39 0,0
08.08.2018 10:00:00 20,2 15,2 21,2 29 16 50 27 WZW 1010,5 32 0,0
08.08.2018 09:00:00 20,5 16,9 20,4 22 12 40 21 ZW 1009,6 19 0,0
08.08.2018 08:00:00 19,6 16,9 19,4 25 14 43 23 ZW 1008,9 28 0,0

tt = temperatuur
td = dauwpunt
tt 5cm = temperatuur 5cm
ff = windsnelheid
fx = windstoten
dd = windrichting
ppp = luchtdruk
vv = zicht
rr = neerslag

Weerstations in de omgeving